Temp
-13 -14 -13 -13 -11 -11 -11 -12 -11 -12 -11 -11 -10 -10 -10 -9 -9 -9 -9 -8 -8 -8 -8 -8 -8 -8 -8 -8 -8 -8 -8 -9 -9 -9 -9 -10 -10 -10 -10 -10 -10 -10 -10
-14 -13 -13 -13 -12 -11 -11 -12 -12 -12 -11 -11 -10 -10 -10 -10 -10 -9 -9 -9 -9 -9 -8 -8 -9 -9 -9 -9 -9 -9 -9 -9 -10 -10 -10 -10 -10 -10 -10 -10 -10 -10 -10
-13 -13 -13 -12 -12 -13 -12 -12 -12 -12 -12 -12 -11 -11 -11 -10 -10 -10 -10 -9 -9 -9 -9 -9 -10 -10 -10 -10 -10 -9 -10 -10 -10 -10 -11 -11 -11 -11 -11 -11 -11 -11 -11
-13 -13 -14 -12 -12 -13 -12 -13 -12 -12 -12 -12 -11 -11 -11 -10 -10 -10 -11 -11 -10 -10 -10 -10 -10 -10 -10 -11 -11 -10 -11 -10 -11 -11 -11 -11 -11 -11 -11 -11 -11 -11 -11
-14 -13 -13 -13 -12 -10 -13 -12 -12 -12 -12 -12 -12 -12 -12 -11 -11 -11 -10 -10 -10 -10 -10 -10 -10 -10 -11 -11 -12 -11 -11 -11 -11 -11 -12 -12 -11 -11 -11 -11 -11 -11 -11
-14 -13 -14 -13 -13 -12 -13 -13 -12 -12 -12 -12 -12 -12 -12 -12 -12 -11 -11 -10 -11 -11 -11 -11 -11 -11 -11 -12 -12 -12 -12 -12 -12 -12 -12 -12 -12 -12 -11 -11 -11 -11 -12
-14 -14 -13 -13 -13 -13 -10 -13 -13 -13 -12 -12 -12 -12 -12 -12 -12 -11 -11 -11 -11 -12 -12 -11 -12 -11 -11 -12 -12 -12 -12 -12 -12 -12 -12 -12 -12 -12 -12 -12 -12 -12 -12
-14 -14 -13 -13 -13 -12 -11 -13 -13 -13 -12 -12 -12 -12 -12 -13 -12 -11 -11 -11 -11 -12 -12 -12 -12 -12 -12 -13 -13 -13 -13 -13 -13 -12 -12 -12 -12 -12 -12 -12 -12 -12 -13
-14 -13 -14 -13 -13 -13 -10 -13 -12 -12 -13 -12 -12 -12 -12 -12 -12 -12 -11 -11 -12 -12 -12 -12 -12 -13 -13 -13 -14 -14 -13 -13 -13 -12 -13 -13 -13 -13 -13 -13 -13 -13 -13
-13 -13 -13 -12 -11 -10 -9 -12 -11 -12 -13 -12 -12 -11 -12 -12 -13 -12 -12 -12 -12 -12 -11 -12 -12 -15 -14 -13 -14 -14 -13 -13 -13 -13 -13 -13 -13 -13 -13 -13 -13 -13 -13
-13 -12 -12 -11 -10 -9 -10 -11 -11 -12 -13 -12 -11 -11 -12 -12 -12 -12 -12 -12 -12 -12 -12 -11 -12 -14 -14 -14 -14 -14 -14 -13 -13 -14 -14 -13 -13 -13 -13 -13 -13 -13 -13
-13 -12 -11 -11 -9 -9 -9 -10 -11 -12 -12 -12 -12 -11 -12 -12 -12 -12 -12 -12 -12 -12 -12 -12 -13 -15 -15 -15 -14 -14 -13 -13 -14 -14 -14 -13 -13 -13 -13 -13 -13 -13 -13
-13 -13 -11 -11 -10 -10 -10 -11 -12 -12 -12 -12 -12 -12 -12 -12 -12 -12 -12 -12 -12 -12 -12 -12 -13 -15 -15 -15 -14 -14 -14 -14 -14 -14 -14 -14 -13 -13 -13 -13 -13 -13 -13
-12 -12 -13 -12 -11 -11 -11 -11 -12 -12 -12 -12 -12 -12 -11 -11 -13 -12 -13 -12 -12 -12 -13 -13 -14 -16 -15 -15 -14 -14 -14 -14 -14 -14 -14 -14 -14 -14 -14 -13 -13 -13 -13
-12 -12 -13 -13 -12 -12 -11 -12 -12 -12 -12 -12 -12 -12 -12 -12 -12 -12 -13 -12 -12 -13 -14 -14 -15 -16 -15 -15 -14 -15 -14 -14 -14 -14 -14 -14 -14 -14 -14 -14 -14 -14 -14
-11 -11 -11 -12 -12 -12 -12 -12 -12 -12 -12 -12 -12 -12 -12 -12 -12 -12 -13 -12 -13 -14 -15 -15 -16 -16 -15 -15 -15 -15 -15 -14 -14 -14 -14 -14 -14 -14 -14 -14 -14 -14 -14
-11 -11 -11 -11 -11 -12 -12 -12 -11 -12 -12 -11 -13 -12 -12 -12 -12 -12 -13 -13 -14 -14 -16 -16 -16 -15 -15 -15 -14 -14 -14 -14 -14 -14 -14 -14 -14 -14 -14 -14 -14 -14 -14
-11 -11 -11 -11 -11 -11 -11 -12 -12 -11 -13 -12 -12 -12 -12 -13 -12 -12 -13 -13 -15 -15 -16 -16 -15 -15 -15 -15 -15 -15 -15 -14 -14 -15 -14 -15 -15 -14 -15 -15 -15 -15 -15
-11 -11 -11 -11 -11 -11 -11 -12 -12 -11 -12 -12 -12 -13 -13 -13 -13 -13 -13 -15 -16 -16 -15 -15 -15 -15 -15 -15 -15 -15 -15 -14 -15 -15 -14 -15 -15 -15 -15 -15 -15 -15 -15
-11 -11 -12 -12 -12 -12 -12 -12 -12 -12 -13 -12 -12 -13 -13 -13 -14 -14 -15 -15 -15 -15 -15 -15 -15 -15 -15 -15 -15 -15 -15 -15 -15 -15 -15 -15 -16 -16 -16 -16 -15 -16 -16
-12 -12 -12 -12 -13 -12 -12 -11 -11 -12 -13 -13 -13 -13 -14 -14 -13 -14 -15 -15 -15 -15 -15 -15 -15 -15 -15 -15 -15 -15 -15 -15 -15 -15 -15 -15 -15 -16 -16 -16 -16 -16 -16
-12 -12 -12 -12 -12 -12 -11 -11 -12 -13 -13 -14 -14 -15 -15 -15 -15 -15 -15 -15 -15 -15 -16 -15 -16 -15 -15 -15 -15 -15 -15 -15 -16 -16 -16 -16 -16 -16 -16 -16 -16 -16 -16
-15 -14 -13 -13 -13 -13 -13 -13 -14 -14 -14 -14 -14 -15 -15 -15 -15 -15 -15 -15 -15 -15 -16 -15 -15 -15 -16 -16 -15 -15 -15 -16 -16 -16 -16 -16 -16 -16 -16 -17 -17 -16 -17
-14 -14 -14 -14 -14 -14 -14 -14 -14 -14 -14 -14 -14 -14 -14 -15 -15 -15 -15 -15 -15 -16 -16 -16 -16 -16 -16 -16 -16 -16 -16 -16 -16 -16 -16 -16 -17 -17 -17 -17 -17 -17 -17
-14 -14 -14 -14 -13 -13 -13 -14 -14 -14 -14 -14 -14 -14 -15 -15 -15 -15 -15 -15 -16 -16 -16 -16 -16 -16 -16 -16 -16 -16 -17 -17 -17 -16 -17 -17 -17 -17 -17 -17 -17 -17 -17
-15 -14 -14 -14 -14 -13 -14 -14 -13 -13 -14 -14 -14 -14 -14 -14 -15 -15 -15 -15 -16 -16 -16 -17 -16 -16 -16 -16 -16 -16 -16 -17 -17 -17 -17 -17 -17 -17 -18 -18 -18 -18 -19
Height
5807 5808 5808 5808 5812 5816 5821 5820 5823 5828 5832 5834 5835 5838 5840 5841 5842 5844 5845 5846 5845 5846 5845 5845 5846 5846 5845 5845 5845 5845 5845 5843 5843 5844 5843 5843 5843 5842 5842 5841 5840 5840 5839
5802 5804 5802 5808 5811 5809 5810 5814 5821 5826 5828 5830 5833 5833 5833 5835 5837 5839 5841 5843 5843 5842 5844 5843 5844 5843 5844 5843 5842 5841 5843 5843 5842 5842 5842 5841 5840 5840 5839 5839 5838 5837 5837
5798 5799 5798 5799 5801 5804 5807 5813 5818 5822 5825 5828 5830 5831 5832 5833 5835 5836 5838 5839 5839 5840 5841 5841 5841 5842 5843 5842 5841 5840 5840 5840 5840 5840 5839 5839 5838 5838 5837 5836 5836 5835 5834
5791 5788 5787 5794 5797 5801 5802 5810 5813 5818 5821 5824 5827 5829 5830 5831 5832 5834 5833 5835 5836 5836 5837 5838 5838 5841 5841 5839 5838 5838 5839 5838 5837 5837 5837 5838 5836 5836 5835 5834 5833 5833 5832
5783 5782 5779 5781 5785 5789 5798 5804 5808 5812 5817 5820 5825 5826 5828 5829 5831 5832 5833 5833 5834 5835 5836 5835 5836 5837 5838 5839 5836 5835 5836 5836 5836 5836 5835 5835 5834 5833 5833 5831 5831 5831 5830
5781 5781 5775 5778 5778 5782 5791 5797 5803 5808 5813 5816 5819 5822 5825 5827 5829 5831 5830 5831 5830 5832 5832 5833 5833 5834 5836 5837 5834 5834 5835 5834 5833 5833 5831 5832 5831 5830 5829 5828 5829 5828 5828
5771 5771 5772 5775 5775 5785 5784 5794 5800 5805 5809 5811 5816 5819 5820 5823 5826 5827 5827 5828 5828 5829 5829 5829 5830 5830 5833 5834 5832 5831 5830 5833 5832 5832 5829 5829 5829 5829 5828 5827 5827 5826 5825
5764 5758 5759 5765 5764 5771 5767 5790 5795 5799 5803 5807 5812 5815 5817 5819 5822 5823 5824 5825 5825 5826 5825 5824 5825 5825 5828 5831 5828 5828 5828 5829 5829 5828 5828 5827 5826 5826 5825 5824 5825 5824 5823
5757 5757 5755 5755 5756 5758 5764 5782 5788 5794 5799 5803 5807 5812 5814 5816 5817 5819 5820 5821 5822 5821 5820 5820 5820 5820 5821 5827 5826 5826 5826 5826 5825 5824 5824 5824 5823 5823 5822 5822 5822 5821 5821
5744 5746 5744 5743 5749 5746 5747 5773 5777 5789 5793 5800 5805 5808 5809 5812 5813 5816 5816 5815 5816 5816 5814 5813 5814 5814 5815 5818 5822 5822 5822 5823 5823 5822 5821 5821 5821 5820 5820 5820 5819 5818 5817
5741 5744 5743 5726 5739 5722 5747 5765 5772 5779 5788 5796 5800 5801 5804 5807 5809 5809 5810 5810 5810 5810 5811 5810 5810 5810 5809 5814 5818 5818 5819 5818 5818 5818 5817 5817 5817 5816 5816 5816 5815 5815 5813
5740 5737 5737 5735 5725 5728 5752 5761 5768 5777 5786 5791 5794 5797 5800 5802 5804 5804 5805 5804 5804 5805 5806 5806 5805 5806 5807 5810 5814 5814 5814 5815 5815 5815 5815 5814 5814 5812 5813 5812 5810 5809 5808
5742 5742 5737 5736 5730 5740 5752 5756 5766 5773 5782 5788 5790 5792 5794 5797 5796 5798 5797 5799 5798 5799 5800 5800 5800 5801 5804 5807 5811 5811 5810 5811 5813 5812 5812 5811 5810 5809 5808 5807 5805 5804 5803
5740 5745 5742 5741 5743 5741 5751 5755 5765 5774 5780 5782 5784 5787 5788 5791 5792 5793 5793 5793 5794 5793 5793 5795 5795 5797 5800 5803 5808 5808 5808 5808 5809 5809 5808 5808 5807 5805 5803 5801 5800 5798 5797
5739 5744 5746 5746 5748 5752 5754 5757 5765 5771 5774 5775 5779 5784 5784 5786 5788 5787 5788 5788 5789 5788 5787 5789 5792 5796 5797 5800 5803 5805 5806 5806 5805 5805 5804 5803 5802 5800 5798 5796 5794 5792 5790
5739 5741 5746 5747 5749 5751 5753 5759 5766 5768 5771 5772 5775 5778 5779 5781 5782 5782 5782 5783 5783 5783 5784 5786 5791 5794 5796 5797 5800 5802 5803 5803 5802 5800 5799 5798 5797 5794 5792 5790 5788 5786 5784
5738 5742 5741 5743 5747 5751 5752 5756 5760 5764 5764 5767 5769 5771 5774 5773 5776 5777 5777 5777 5778 5777 5781 5785 5788 5791 5792 5794 5796 5797 5797 5798 5796 5796 5795 5792 5790 5787 5786 5784 5782 5780 5777
5735 5740 5744 5744 5746 5748 5749 5751 5754 5758 5760 5759 5764 5765 5767 5769 5771 5770 5770 5771 5773 5776 5780 5782 5786 5788 5788 5790 5791 5792 5792 5793 5792 5791 5790 5787 5784 5782 5780 5777 5775 5773 5770
5734 5735 5739 5742 5745 5745 5746 5748 5748 5751 5754 5756 5758 5759 5761 5762 5762 5763 5764 5766 5771 5776 5779 5780 5782 5784 5784 5786 5786 5786 5787 5787 5786 5785 5783 5781 5777 5775 5773 5772 5769 5765 5762
5730 5732 5734 5736 5740 5740 5743 5743 5745 5746 5749 5748 5750 5754 5755 5757 5757 5759 5761 5766 5769 5773 5776 5778 5780 5781 5781 5782 5782 5782 5782 5781 5781 5779 5776 5773 5771 5768 5766 5765 5761 5757 5755
5729 5730 5730 5733 5734 5734 5736 5736 5737 5737 5741 5744 5747 5749 5750 5754 5757 5758 5761 5765 5768 5771 5774 5775 5776 5778 5778 5778 5779 5777 5776 5774 5773 5771 5768 5766 5764 5762 5759 5757 5753 5749 5746
5729 5727 5731 5732 5734 5733 5736 5736 5736 5737 5740 5741 5746 5747 5751 5756 5758 5760 5762 5764 5767 5769 5770 5771 5771 5773 5773 5771 5772 5771 5770 5769 5766 5764 5761 5758 5756 5754 5751 5747 5743 5740 5737
5729 5727 5731 5733 5733 5733 5734 5737 5739 5741 5742 5745 5746 5747 5753 5754 5755 5757 5759 5760 5763 5764 5764 5765 5766 5766 5766 5764 5763 5763 5762 5759 5756 5754 5752 5749 5747 5744 5741 5737 5734 5730 5727
5730 5729 5732 5734 5734 5735 5735 5739 5740 5740 5744 5743 5745 5749 5750 5751 5751 5753 5755 5757 5758 5758 5758 5759 5760 5760 5759 5757 5756 5756 5753 5751 5748 5745 5741 5738 5735 5734 5731 5727 5723 5719 5714
5730 5728 5731 5732 5733 5736 5738 5739 5742 5743 5743 5744 5745 5746 5746 5747 5749 5751 5750 5751 5752 5753 5754 5753 5753 5753 5752 5750 5749 5747 5745 5742 5739 5735 5732 5728 5726 5723 5720 5715 5709 5704 5700
5730 5730 5729 5732 5733 5735 5736 5737 5740 5741 5739 5738 5740 5741 5741 5743 5744 5745 5745 5745 5746 5747 5747 5747 5746 5744 5743 5740 5738 5735 5732 5730 5728 5725 5722 5719 5716 5711 5707 5701 5695 5690 5685
Wind_Speed
40 43 49 49 24 27 34 17 17 19 21 20 20 18 16 14 15 17 17 19 16 19 17 16 15 13 12 12 12 12 14 12 13 13 12 11 10 9 9 10 9 11 13
35 41 46 48 33 32 33 24 24 25 24 23 24 20 17 17 17 17 19 19 21 20 20 16 14 13 12 12 12 13 13 13 13 13 13 13 11 11 10 10 11 11 12
36 39 49 34 38 33 30 32 28 28 28 27 24 19 20 20 20 20 19 22 21 20 19 17 15 14 12 12 13 13 13 14 13 13 11 10 11 11 10 10 10 10 10
37 41 45 36 38 34 32 30 30 30 28 25 24 23 23 21 20 27 25 24 22 22 21 20 15 14 14 12 13 15 14 16 14 12 9 12 10 11 11 10 10 9 10
45 42 42 43 33 40 35 37 35 32 29 27 27 25 24 20 23 23 21 23 22 21 22 19 19 17 14 12 13 15 17 16 15 13 10 11 11 9 8 6 6 7 7
41 52 47 47 48 32 35 39 37 34 31 30 29 26 22 21 22 20 19 21 21 23 22 22 19 17 15 13 15 16 16 14 13 13 11 10 7 5 5 5 6 7 7
48 54 55 58 55 52 38 41 38 35 33 30 30 32 30 21 20 22 19 18 18 19 21 22 21 20 19 16 15 17 18 10 14 15 10 8 6 7 6 5 5 5 6
52 54 60 58 60 52 53 43 39 37 33 31 32 28 26 25 24 25 21 19 17 19 20 19 22 24 25 19 16 16 18 14 13 11 7 7 7 6 6 5 6 6 7
40 48 54 56 54 61 53 47 37 39 37 34 30 28 28 23 25 26 24 23 24 21 22 23 25 28 25 22 16 13 17 14 13 9 7 7 7 7 6 6 8 8 9
15 21 33 43 45 52 49 53 45 44 35 31 26 25 23 27 27 27 26 24 22 22 28 26 29 24 29 31 15 14 15 12 10 9 9 9 8 8 9 10 11 12 14
9 17 34 34 51 51 64 47 40 37 31 29 29 26 23 24 27 26 27 29 28 24 25 26 22 19 19 16 14 16 16 12 11 10 10 11 11 11 13 14 15 17 18
12 16 26 17 43 54 57 44 42 33 27 26 26 26 24 29 28 27 24 19 17 19 23 29 23 18 15 13 17 15 15 12 12 12 12 13 14 14 17 18 18 19 19
9 14 14 5 31 49 52 42 35 32 29 27 24 20 23 27 19 19 23 16 14 18 22 30 21 21 19 16 16 16 16 14 13 13 14 15 17 17 18 18 18 19 22
4 5 13 10 10 23 40 33 30 25 29 29 25 21 24 28 12 11 16 18 20 19 24 24 21 20 18 18 18 16 17 16 15 15 17 18 18 19 20 19 20 22 25
3 3 7 10 2 13 12 18 30 16 16 25 33 19 15 17 22 20 20 19 22 20 18 23 21 19 18 19 17 15 15 16 17 17 20 20 20 20 21 21 23 25 27
2 1 5 7 3 5 6 9 13 16 17 10 13 14 14 16 18 19 19 20 18 20 23 24 22 19 18 15 15 15 17 17 19 21 22 22 23 22 22 24 25 27 28
8 8 8 8 9 9 12 12 14 18 15 26 22 16 17 17 16 18 18 20 17 22 24 20 17 18 15 14 17 18 20 20 21 23 25 25 24 25 26 28 29 30 31
13 14 14 14 13 13 14 16 14 19 15 12 22 26 23 18 19 16 21 20 21 25 23 18 18 17 15 17 19 21 22 23 23 26 27 26 27 28 29 29 29 30 30
14 12 11 11 9 11 14 15 16 14 17 18 20 17 21 21 19 21 17 17 26 20 18 17 17 18 18 19 21 22 25 26 27 29 29 29 29 30 30 30 30 29 29
11 7 8 8 9 9 12 12 20 18 21 15 17 19 23 28 19 18 19 21 20 16 16 18 18 18 18 19 22 26 28 27 28 30 32 32 30 31 32 32 31 29 43
13 9 1 11 10 7 8 8 10 11 16 17 18 21 16 15 17 19 18 19 17 17 19 20 18 19 20 23 26 29 30 30 32 32 31 31 33 35 39 37 37 45 51
8 6 6 9 11 7 4 3 7 11 13 13 17 19 17 17 17 19 14 12 16 19 19 18 18 20 23 27 30 33 34 31 32 34 35 34 34 36 40 45 49 51 52
19 18 12 12 12 9 9 12 11 13 14 16 14 10 10 13 13 11 13 12 18 19 16 18 21 23 25 32 34 38 39 34 36 38 40 42 43 46 44 45 48 51 56
14 16 15 13 14 13 12 10 9 9 9 8 7 7 7 8 8 13 13 13 16 19 20 23 24 26 26 33 37 41 43 43 46 48 46 48 49 47 47 46 47 52 55
9 10 9 9 10 10 12 10 8 7 5 5 5 5 7 9 12 17 17 15 19 19 22 26 31 28 27 28 31 33 37 40 44 49 46 43 45 46 50 54 59 60 64
4 2 4 5 6 7 6 7 8 8 8 6 6 6 6 12 15 17 15 15 18 19 19 22 25 28 32 33 34 34 36 37 36 39 41 43 43 44 48 55 58 64 66
Wind_Direction
251 262 262 265 239 228 234 218 204 227 233 237 245 250 263 273 277 282 289 286 274 271 267 268 274 272 277 278 282 290 287 295 304 305 303 301 297 298 304 303 303 303 305
244 252 264 257 241 217 232 214 217 225 231 236 241 244 256 266 277 280 283 282 274 265 265 261 264 267 269 275 275 275 290 299 301 300 299 299 302 298 293 297 295 295 297
255 250 249 244 210 199 202 212 214 226 230 232 240 247 256 257 267 270 268 267 258 257 258 255 256 257 269 269 273 279 286 286 287 295 300 301 295 299 293 294 295 292 300
253 255 256 242 229 227 200 214 217 224 228 236 241 249 254 260 262 265 261 258 255 252 251 251 254 261 259 263 270 281 278 283 286 285 282 287 290 289 292 293 303 306 305
242 249 250 253 239 217 207 212 218 223 228 232 242 246 254 258 262 259 254 249 249 252 251 256 254 251 255 264 264 278 280 276 281 280 273 290 295 295 300 316 310 310 320
247 243 247 248 253 237 220 206 215 219 223 230 237 244 250 262 266 271 257 249 246 247 251 253 251 255 259 253 253 262 263 270 278 283 297 291 287 285 302 308 304 318 330
251 250 245 246 251 256 210 211 213 217 223 229 239 247 249 249 265 265 264 257 250 255 257 258 262 258 255 249 250 260 263 260 270 275 280 275 283 284 294 310 321 334 336
248 257 252 245 249 243 200 208 210 214 219 229 241 256 268 262 255 260 262 259 258 251 249 255 260 256 253 246 245 240 255 279 277 277 263 262 269 285 299 310 314 316 316
238 249 246 243 245 228 195 201 208 213 220 230 239 252 266 250 254 255 261 255 254 258 260 263 264 253 249 242 223 244 251 267 277 260 257 266 274 285 292 288 288 285 284
302 282 272 239 233 202 182 208 199 212 216 229 241 248 253 252 257 259 261 255 261 266 264 260 258 241 237 244 253 248 258 258 257 252 261 267 273 285 283 285 282 282 289
304 286 268 253 196 186 180 206 186 200 215 231 239 243 258 255 254 256 254 255 261 259 277 280 258 250 256 235 234 251 256 257 243 254 262 270 275 279 276 276 281 285 290
17 347 300 262 201 189 185 182 204 211 218 236 246 245 251 256 256 262 246 272 266 262 268 269 250 242 224 233 246 248 251 241 238 251 263 272 280 282 281 282 283 287 293
39 3 324 292 163 192 181 197 194 206 223 233 242 244 252 256 265 262 261 265 277 267 266 262 238 220 220 230 241 239 247 244 248 259 269 274 277 281 281 282 286 289 297
47 5 354 38 210 186 184 180 212 211 226 232 232 245 245 234 255 270 263 259 274 271 267 241 221 210 215 231 240 243 236 240 251 264 274 275 279 283 284 288 293 299 300
351 338 353 333 70 164 156 164 189 200 207 224 224 249 235 235 260 253 282 257 258 260 250 217 200 211 219 231 241 231 237 250 263 271 274 281 283 284 291 297 300 302 304
233 260 285 273 255 280 286 149 196 215 199 196 207 240 247 260 267 271 254 254 253 249 227 205 197 215 229 237 236 231 240 249 264 271 278 283 284 289 294 295 297 300 304
229 214 241 257 243 240 230 188 220 225 204 225 234 257 251 258 258 266 245 250 241 228 195 190 205 223 226 237 235 246 249 257 268 277 282 283 288 293 295 295 299 301 301
234 221 219 224 236 232 225 241 231 218 234 218 251 254 261 252 254 248 241 237 224 201 185 194 216 226 231 236 238 246 256 265 271 277 283 294 296 294 295 296 297 296 298
226 239 240 229 231 233 239 237 219 210 252 251 229 245 244 257 263 235 227 201 181 186 200 205 218 233 236 238 250 260 264 271 280 287 294 296 291 290 291 292 288 293 308
213 217 284 241 251 232 233 237 225 207 231 235 240 241 236 254 234 199 180 174 187 199 213 226 239 243 243 254 262 266 273 278 285 293 298 296 288 285 286 284 285 300 310
187 190 292 230 264 258 254 222 212 201 218 229 235 239 222 197 190 189 187 196 199 213 231 245 243 246 253 258 263 270 278 285 289 292 291 291 287 288 288 287 290 301 304
145 161 186 201 221 222 222 151 154 150 166 143 150 152 158 167 176 186 195 205 220 232 240 242 243 252 262 267 271 275 278 281 283 285 290 291 291 292 293 292 292 295 301
103 119 139 158 141 130 125 122 127 138 143 155 158 153 178 185 195 209 224 226 234 240 240 245 254 262 266 273 279 283 281 281 284 288 290 291 292 295 297 295 294 293 294
92 100 108 119 128 124 122 132 133 137 166 163 170 194 216 229 242 223 228 243 243 249 259 266 270 270 278 280 280 280 282 281 285 288 289 290 290 290 293 294 294 299 301
109 125 139 99 95 108 120 127 142 152 155 169 177 202 215 226 232 234 245 253 251 267 270 274 277 279 275 286 286 287 280 278 286 285 288 290 288 294 296 300 302 302 303
7 56 117 141 156 176 166 166 179 190 200 207 217 226 248 250 249 239 248 255 263 271 277 282 284 288 288 287 281 282 285 284 294 287 286 289 294 297 304 305 303 299 296